Weather Roundup
Issued by NWS Chicago, IL

Home | Current Version | Previous Version | Graphics & Text | Print | Product List | Glossary On
Versions: 1 2 3 4 5 6 7 8 9 10 11 12 13 14 15 16 17 18 19 20 21 22 23 24 25 26 27 28 29 30 31 32 33 34 35 36 37 38 39 40 41 42 43 44 45 46 47 48 49 50
000
NZUS59 KLOT 181503
HRRLOT

CHICAGO AREA WEATHER ROUNDUP
NATIONAL WEATHER SERVICE CHICAGO/ROMEOVILLE IL
900 AM CST MON DEC 18 2017

NOTE: "FAIR" INDICATES FEW OR NO CLOUDS BELOW 12,000 FEET WITH NO
SIGNIFICANT WEATHER AND/OR OBSTRUCTIONS TO VISIBILITY.

* THESE STATIONS ARE NOT UNDER NWS QUALITY CONTROL. THEY ALSO MAY NOT
  REPORT WEATHER SUCH AS PRECIPITATION OR FOG.

ILZ005-006-012>014-019>023-181600-
NORTHEAST ILLINOIS

CITY           SKY/WX    TMP DP  RH WIND       PRES   REMARKS
OHARE          LGT RAIN  42  40  92 W10       29.92S FOG
MIDWAY         LGT RAIN  44  43  96 SW12      29.93F FOG
AURORA         LGT RAIN  41  40  96 W9        29.94S FOG
LANSING*       CLOUDY    43  43  99 SW10      29.95S FOG
JOLIET*        CLOUDY    45  44  95 SW10      29.95S FOG
WAUKEGAN       CLOUDY    41  38  89 VRB7      29.90S FOG
DUPAGE AIRPORT LGT RAIN  41  41 100 W12       29.93S FOG
WHEELING       LGT RAIN  43  40  89 W10G18    29.93S FOG
KANKAKEE*      CLOUDY    44  42  93 SW13      29.97F
MORRIS*        CLOUDY    44  42  92 SW13      29.95S FOG
LEWIS AIRPORT* CLOUDY    43  42  95 SW14      29.94F FOG
NORTHERLY ISL    N/A     43  40  89 W5          N/A
$$

WIZ051-052-058>065-066-070>072-181600-
SOUTHEAST WISCONSIN

CITY           SKY/WX    TMP DP  RH WIND       PRES   REMARKS
MILWAUKEE      CLOUDY    37  36  96 W7        29.89F FOG
KENOSHA*       CLOUDY    40  36  86 W13       29.89F FOG
RACINE*        CLOUDY    38  37  97 W7        29.91S FOG
WAUKESHA       FOG       32  32 100 SW6       29.89S VSB 1   WCI  26
WEST BEND      CLOUDY    32  32 100 W12       29.87S FOG     WCI  23
$$

INZ001>003-010>013-019-020-181600-
NORTHWEST INDIANA

CITY           SKY/WX    TMP DP  RH WIND       PRES   REMARKS
GARY*          CLOUDY    45  43  93 SW9       29.95S FOG
MICHIGAN CITY* NOT AVBL
RENSSELAER*    NOT AVBL
VALPARAISO     CLOUDY    45  43  93 SW12      29.95F FOG
$$

LMZ740>746-181600-
SOUTHERN LAKE MICHIGAN

STATION/POSITION TIME  SKY/WX   TEMP WIND        PRES    VSBY
                                AIR  DIR/SP/G
                 (UTC)          (F)  (DEG/KT/KT) (MB)    (MI)
HARRISON CRIB    1440            45  220/ 13/ 15   N/A
BURNHAM HARBOR   1500            43  190/  3/  8   N/A
CALUMET HARBOR   1430            43  200/  8/ 11 1013.1F
BURNS HARBOR     1440            44  220/ 12/ 18 1014.6F
MICHIGAN CITY    1440            43  210/ 12/ 13   N/A
$$

ABBREVIATIONS USED IN REMARKS
   TC - TEMPERATURE IN CELSIUS
  WCI - WIND CHILL INDEX
   HX - HEAT INDEX
  VSB - VISIBILITY
$$



USA.gov is the U.S. government's official web portal to all federal, state and local government web resources and services.